This is the latest recevied weather packets stored in our database for station/object VK2HIM-1. If no packets are shown the sender has not sent any weather packets the latest 10 day(s).
| Time | Temp. | Humidity | Pressure | Rain* | Wind** | Luminosity | Snow |
|---|---|---|---|---|---|---|---|
| 1778137429 | 12.78° C | 57% | 1015 hPa | 0 mm | - | - | - |
| 1778135629 | 13.33° C | 57% | 1014.8 hPa | 0 mm | - | - | - |
| 1778133829 | 14.44° C | 57% | 1014.5 hPa | 0 mm | - | - | - |
| 1778132028 | 13.33° C | 58% | 1014.6 hPa | 0 mm | - | - | - |
| 1778130228 | 12.78° C | 67% | 1014.3 hPa | 0 mm | - | - | - |
| 1778128428 | 15.56° C | 49% | 1013.7 hPa | 0 mm | - | - | - |
| 1778126629 | 17.22° C | 45% | 1013.5 hPa | 0 mm | - | - | - |
| 1778124829 | 16.67° C | 44% | 1013.5 hPa | 0 mm | - | - | - |
| 1778123029 | 16.11° C | 46% | 1013.6 hPa | 0 mm | - | - | - |
| 1778121228 | 16.11° C | 48% | 1013.5 hPa | 0 mm | - | - | - |
| 1778119427 | 16.67° C | 48% | 1013.8 hPa | 0 mm | - | - | - |
| 1778117627 | 17.78° C | 47% | 1014.1 hPa | 0 mm | - | - | - |
| 1778115827 | 16.67° C | 45% | 1013.9 hPa | 0 mm | - | - | - |
| 1778114027 | 16.11° C | 42% | 1013.5 hPa | 0 mm | - | - | - |
| 1778112228 | 15.56° C | 41% | 1013.6 hPa | 0 mm | - | - | - |
| 1778110427 | 16.11° C | 57% | 1013.9 hPa | 0 mm | - | - | - |
| 1778108626 | 15.56° C | 64% | 1014 hPa | 0 mm | - | - | - |
| 1778106831 | 16.11° C | 66% | 1013.3 hPa | 0 mm | - | - | - |
| 1778105031 | 15° C | 70% | 1012.7 hPa | 0 mm | - | - | - |
| 1778103231 | 14.44° C | 70% | 1011.7 hPa | 0 mm | - | - | - |
| 1778101430 | 13.89° C | 71% | 1011.6 hPa | 0 mm | - | - | - |
| 1778099630 | 13.33° C | 71% | 1011.8 hPa | 0 mm | - | - | - |
| 1778097829 | 12.78° C | 70% | 1011.8 hPa | 0 mm | - | - | - |
| 1778096028 | 13.33° C | 68% | 1012.1 hPa | 0 mm | - | - | - |
| 1778094228 | 13.33° C | 67% | 1012.3 hPa | 0 mm | - | - | - |
* Rain latest hour (hover to see other rain measurements)
** Current wind speed in m/s (hover to see current wind gust speed)